When you browse on this site, cookies collect data to enhance your experience and personalize the content and advertising you see.
Visit our Privacy Policy to learn more. By continuing to use the site, you agree to this use of cookies and data.
  • In Österreich
  • Länderverzeichnis
  • Für 7 Tage
  • Wassertemperatur
  • Satellitenkarten
  • Wetterkarte
  • News
  • Widgets
  • user-avatar
    Anmelden

    Stündliche Wetter Orlowce

    Heute, 25 Mai, Samstag

    Zeit Temperatur Niederschläge Wind Luftdruck Luftfeuchtigkeit
    00:00 +14°C° 0 mm 2 m/S 756 mmHg 71%
    01:00 +14°C° 0 mm 2 m/S 756 mmHg 75%
    02:00 +13°C° 0 mm 2 m/S 756 mmHg 80%
    03:00 +12°C° 0 mm 2 m/S 756 mmHg 85%
    04:00 +12°C° 0 mm 2 m/S 756 mmHg 90%
    05:00 +13°C° 0 mm 2 m/S 756 mmHg 84%
    06:00 +13°C° 0 mm 3 m/S 756 mmHg 79%
    07:00 +14°C° 0 mm 3 m/S 756 mmHg 73%
    08:00 +16°C° 0 mm 3 m/S 757 mmHg 68%
    09:00 +17°C° 0 mm 4 m/S 757 mmHg 63%
    10:00 +18°C° 0 mm 4 m/S 757 mmHg 58%
    11:00 +19°C° 0 mm 4 m/S 757 mmHg 56%
    12:00 +19°C° 0 mm 4 m/S 757 mmHg 54%
    13:00 +20°C° 0 mm 5 m/S 757 mmHg 52%
    14:00 +20°C° 0 mm 5 m/S 757 mmHg 52%
    15:00 +20°C° 0 mm 4 m/S 757 mmHg 53%
    16:00 +19°C° 0 mm 4 m/S 757 mmHg 53%
    17:00 +18°C° 0 mm 4 m/S 757 mmHg 59%
    18:00 +17°C° 0 mm 4 m/S 757 mmHg 64%
    19:00 +14°C° 0 mm 3 m/S 757 mmHg 70%
    20:00 +13°C° 0 mm 3 m/S 757 mmHg 76%
    21:00 +12°C° 0 mm 2 m/S 758 mmHg 83%
    22:00 +10°C° 0 mm 1 m/S 758 mmHg 89%
    23:00 +9°C° 0 mm 2 m/S 758 mmHg 90%

    Morgen, 26 Mai, Sonntag

    Zeit Temperatur Niederschläge Wind Luftdruck Luftfeuchtigkeit
    00:00 +9°C° 0 mm 2 m/S 758 mmHg 91%
    01:00 +8°C° 0 mm 2 m/S 758 mmHg 91%
    02:00 +8°C° 0 mm 2 m/S 758 mmHg 92%
    03:00 +8°C° 0 mm 2 m/S 757 mmHg 93%
    04:00 +8°C° 0 mm 2 m/S 757 mmHg 93%
    05:00 +10°C° 0 mm 3 m/S 757 mmHg 87%
    06:00 +11°C° 0 mm 3 m/S 757 mmHg 81%
    07:00 +13°C° 0 mm 3 m/S 757 mmHg 75%
    08:00 +14°C° 0 mm 3 m/S 757 mmHg 69%
    09:00 +17°C° 0 mm 4 m/S 757 mmHg 62%
    10:00 +18°C° 0 mm 4 m/S 756 mmHg 56%
    11:00 +19°C° 0 mm 5 m/S 756 mmHg 52%
    12:00 +21°C° 0 mm 5 m/S 755 mmHg 48%
    13:00 +22°C° 0 mm 6 m/S 755 mmHg 44%
    14:00 +22°C° 0 mm 6 m/S 755 mmHg 46%
    15:00 +22°C° 0 mm 6 m/S 754 mmHg 48%
    16:00 +22°C° 0 mm 6 m/S 754 mmHg 50%
    17:00 +20°C° 0 mm 5 m/S 754 mmHg 56%
    18:00 +19°C° 0 mm 3 m/S 754 mmHg 62%
    19:00 +18°C° 0 mm 2 m/S 754 mmHg 69%
    20:00 +17°C° 0 mm 2 m/S 754 mmHg 72%
    21:00 +16°C° 0 mm 2 m/S 754 mmHg 76%
    22:00 +15°C° 0 mm 2 m/S 754 mmHg 80%
    23:00 +15°C° 0.1 mm 2 m/S 754 mmHg 81%

    übermorgen, 27 Mai, Montag

    Zeit Temperatur Niederschläge Wind Luftdruck Luftfeuchtigkeit
    00:00 +16°C° 0.1 mm 3 m/S 754 mmHg 83%
    01:00 +16°C° 0.1 mm 3 m/S 753 mmHg 84%
    02:00 +16°C° 0.1 mm 3 m/S 753 mmHg 85%
    03:00 +16°C° 0.1 mm 3 m/S 752 mmHg 85%
    04:00 +14°C° 0.1 mm 4 m/S 752 mmHg 85%
    05:00 +15°C° 0.2 mm 4 m/S 752 mmHg 86%
    06:00 +15°C° 0.2 mm 4 m/S 752 mmHg 86%
    07:00 +15°C° 0.2 mm 4 m/S 752 mmHg 86%
    08:00 +18°C° 0.2 mm 4 m/S 752 mmHg 82%
    09:00 +19°C° 0.2 mm 5 m/S 752 mmHg 78%
    10:00 +20°C° 0.2 mm 5 m/S 752 mmHg 74%
    11:00 +20°C° 0.9 mm 5 m/S 752 mmHg 75%
    12:00 +21°C° 0.9 mm 5 m/S 752 mmHg 75%
    13:00 +21°C° 0.9 mm 5 m/S 752 mmHg 76%
    14:00 +20°C° 0.5 mm 4 m/S 752 mmHg 79%
    15:00 +19°C° 0.5 mm 3 m/S 752 mmHg 82%
    16:00 +17°C° 0.5 mm 2 m/S 752 mmHg 85%
    17:00 +18°C° 0 mm 2 m/S 752 mmHg 83%
    18:00 +18°C° 0 mm 2 m/S 752 mmHg 80%
    19:00 +19°C° 0 mm 1 m/S 752 mmHg 78%
    20:00 +18°C° 0 mm 1 m/S 753 mmHg 82%
    21:00 +16°C° 0 mm 1 m/S 753 mmHg 86%
    22:00 +14°C° 0 mm 1 m/S 753 mmHg 90%
    23:00 +14°C° 0 mm 1 m/S 753 mmHg 92%

    28 Mai, Dienstag

    Zeit Temperatur Niederschläge Wind Luftdruck Luftfeuchtigkeit
    00:00 +13°C° 0 mm 1 m/S 753 mmHg 93%
    01:00 +12°C° 0 mm 1 m/S 753 mmHg 95%
    02:00 +12°C° 0 mm 1 m/S 753 mmHg 95%
    03:00 +12°C° 0 mm 1 m/S 753 mmHg 95%
    04:00 +12°C° 0 mm 1 m/S 753 mmHg 95%
    05:00 +13°C° 0 mm 1 m/S 753 mmHg 93%
    06:00 +14°C° 0 mm 2 m/S 753 mmHg 90%
    07:00 +15°C° 0 mm 2 m/S 754 mmHg 87%
    08:00 +16°C° 0.2 mm 2 m/S 754 mmHg 82%
    09:00 +17°C° 0.2 mm 2 m/S 754 mmHg 77%
    10:00 +18°C° 0.2 mm 2 m/S 754 mmHg 72%
    11:00 +18°C° 0.5 mm 2 m/S 754 mmHg 73%
    12:00 +17°C° 0.5 mm 2 m/S 754 mmHg 73%
    13:00 +17°C° 0.5 mm 2 m/S 754 mmHg 74%
    14:00 +17°C° 0.3 mm 2 m/S 754 mmHg 73%
    15:00 +17°C° 0.3 mm 2 m/S 754 mmHg 72%
    16:00 +17°C° 0.3 mm 2 m/S 754 mmHg 72%
    17:00 +16°C° 0.2 mm 3 m/S 754 mmHg 76%
    18:00 +14°C° 0.2 mm 3 m/S 755 mmHg 80%
    19:00 +13°C° 0.2 mm 4 m/S 755 mmHg 84%
    20:00 +12°C° 0.1 mm 4 m/S 756 mmHg 84%
    21:00 +11°C° 0.1 mm 4 m/S 756 mmHg 83%
    22:00 +10°C° 0.1 mm 3 m/S 757 mmHg 82%
    23:00 +9°C° 0 mm 3 m/S 757 mmHg 82%

    29 Mai, Mittwoch

    Zeit Temperatur Niederschläge Wind Luftdruck Luftfeuchtigkeit
    00:00 +9°C° 0 mm 3 m/S 757 mmHg 81%
    01:00 +8°C° 0 mm 3 m/S 758 mmHg 80%
    02:00 +8°C° 0 mm 3 m/S 758 mmHg 81%
    03:00 +7°C° 0 mm 3 m/S 758 mmHg 82%
    04:00 +7°C° 0 mm 3 m/S 759 mmHg 83%
    05:00 +7°C° 0 mm 4 m/S 759 mmHg 77%
    06:00 +8°C° 0 mm 4 m/S 760 mmHg 71%
    07:00 +9°C° 0 mm 5 m/S 761 mmHg 64%
    08:00 +10°C° 0 mm 5 m/S 761 mmHg 60%
    09:00 +12°C° 0 mm 5 m/S 761 mmHg 55%
    10:00 +13°C° 0 mm 5 m/S 762 mmHg 51%
    11:00 +14°C° 0 mm 5 m/S 762 mmHg 48%
    12:00 +15°C° 0 mm 4 m/S 762 mmHg 46%
    13:00 +17°C° 0 mm 4 m/S 762 mmHg 43%
    14:00 +17°C° 0 mm 4 m/S 763 mmHg 44%
    15:00 +17°C° 0 mm 4 m/S 763 mmHg 44%
    16:00 +17°C° 0 mm 4 m/S 763 mmHg 44%
    17:00 +15°C° 0 mm 4 m/S 764 mmHg 48%
    18:00 +14°C° 0 mm 3 m/S 764 mmHg 53%
    19:00 +14°C° 0 mm 2 m/S 764 mmHg 57%
    20:00 +12°C° 0 mm 2 m/S 765 mmHg 63%
    21:00 +10°C° 0 mm 1 m/S 765 mmHg 69%
    22:00 +8°C° 0 mm 1 m/S 766 mmHg 75%
    23:00 +8°C° 0 mm 1 m/S 766 mmHg 76%

    30 Mai, Donnerstag

    Zeit Temperatur Niederschläge Wind Luftdruck Luftfeuchtigkeit
    00:00 +6°C° 0 mm 0 m/S 766 mmHg 78%
    01:00 +6°C° 0 mm 0 m/S 766 mmHg 79%
    02:00 +6°C° 0 mm 0 m/S 766 mmHg 79%
    03:00 +7°C° 0 mm 1 m/S 766 mmHg 79%
    04:00 +7°C° 0 mm 1 m/S 766 mmHg 79%
    05:00 +8°C° 0 mm 2 m/S 766 mmHg 73%
    06:00 +10°C° 0 mm 2 m/S 766 mmHg 66%
    07:00 +13°C° 0 mm 2 m/S 766 mmHg 59%
    08:00 +13°C° 0 mm 3 m/S 765 mmHg 55%
    09:00 +16°C° 0 mm 3 m/S 765 mmHg 50%
    10:00 +18°C° 0 mm 3 m/S 765 mmHg 45%
    11:00 +19°C° 0 mm 3 m/S 764 mmHg 42%
    12:00 +20°C° 0 mm 4 m/S 764 mmHg 40%
    13:00 +21°C° 0 mm 4 m/S 763 mmHg 37%
    14:00 +21°C° 0 mm 4 m/S 763 mmHg 36%
    15:00 +21°C° 0 mm 4 m/S 762 mmHg 35%
    16:00 +22°C° 0 mm 4 m/S 762 mmHg 34%
    17:00 +20°C° 0 mm 3 m/S 761 mmHg 40%
    18:00 +19°C° 0 mm 3 m/S 761 mmHg 46%
    19:00 +18°C° 0 mm 2 m/S 761 mmHg 52%
    20:00 +17°C° 0 mm 2 m/S 761 mmHg 54%
    21:00 +16°C° 0 mm 2 m/S 761 mmHg 57%
    22:00 +14°C° 0 mm 3 m/S 761 mmHg 60%
    23:00 +14°C° 0 mm 3 m/S 761 mmHg 65%
    Mehr zeigen